Starlink 11630

operational
NORAD ID: 63111 Int'l Des: 2025-039 Owner: SPXS Country: US Constellation: starlink
LEOCIRCULAR

关于 Starlink 11630

正在加载描述...

实时位置

正在加载3D地球...

即将过境

高度历史

Altitude vs Time

uPlot chart will show altitude changes over time

两行轨道根数

1 63111U 25039H 25351.29495047 .00119259 00000-0 91896-3 0 9990
2 63111 43.0007 13.7847 0001947 289.7915 70.2742 15.70856730 46655
Epoch: Dec 17, 2025 • Age: 6 hours

当前状态

高度 360.2 km
速度 7.70 km/s
星下点 42.07°N, 157.3°E
发射日期 Feb 27, 2025
运行时间 0.8 years
类型 internet

技术详情

分类 Payload
质量 960.00 kg
干质量 910.00 kg
总质量 960.00 kg
长度 0.30 m
直径 4.10 m
跨度 29.00 m
形状 Box + pan
制造商 SPXS
平台类型 Starlink V2MD
阶段状态 In Orbit
所有者/国家 SPXS/US

大型星座

Loading constellations...